DAL1647 KLAX-KSLC

Flight info

Callsign DAL1647
Flight time N/A
Altitude 37000
Route ORCKA5 LAS Q70 BLIPP Q842 WINEN MLF PITTT2
Aircraft A321/M-SDE3GHIJ1J2J4J5RWYZ/LB1

Departure

Time 2026-05-05 02:37
Airport Los Angeles International Airport (KLAX)

Arrival

Time N/A
Airport Salt Lake City International Airport (KSLC)
Time Latitude Longitude Altitude Speed Heading
2026-05-05 02:26 33.94601 -118.40806 93 ft 0 kts 110°
2026-05-05 02:28 33.94607 -118.40825 94 ft 3 kts 107°
2026-05-05 02:28 33.94614 -118.40849 93 ft 3 kts 107°
2026-05-05 02:29 33.94616 -118.40873 94 ft 3 kts 58°
2026-05-05 02:29 33.94600 -118.40888 94 ft 3 kts 12°
2026-05-05 02:29 33.94577 -118.40891 92 ft 3 kts 356°
2026-05-05 02:29 33.94579 -118.40892 92 ft 3 kts 353°
2026-05-05 02:30 33.94602 -118.40895 92 ft 3 kts 353°
2026-05-05 02:30 33.94620 -118.40898 95 ft 0 kts 353°
2026-05-05 02:32 33.94627 -118.40899 95 ft 5 kts 353°
2026-05-05 02:32 33.94689 -118.40908 94 ft 12 kts 353°
2026-05-05 02:32 33.94770 -118.40898 96 ft 11 kts 21°
2026-05-05 02:33 33.94827 -118.40858 97 ft 8 kts 55°
2026-05-05 02:33 33.94845 -118.40774 94 ft 12 kts 83°
2026-05-05 02:33 33.94855 -118.40677 94 ft 12 kts 83°
2026-05-05 02:33 33.94866 -118.40571 95 ft 15 kts 83°
2026-05-05 02:34 33.94881 -118.40429 96 ft 17 kts 83°
2026-05-05 02:34 33.94894 -118.40294 94 ft 16 kts 83°
2026-05-05 02:34 33.94907 -118.40172 96 ft 14 kts 83°
2026-05-05 02:34 33.94918 -118.40059 95 ft 13 kts 83°
2026-05-05 02:35 33.94930 -118.39960 93 ft 11 kts 76°
2026-05-05 02:35 33.94978 -118.39912 93 ft 9 kts 11°
2026-05-05 02:35 33.95029 -118.39924 93 ft 7 kts 325°
2026-05-05 02:35 33.95041 -118.39970 96 ft 5 kts 266°
2026-05-05 02:36 33.95038 -118.39990 94 ft 1 kts 263°
2026-05-05 02:36 33.95020 -118.40156 98 ft 53 kts 262°
2026-05-05 02:36 33.94948 -118.40861 98 ft 114 kts 263°
2026-05-05 02:36 33.94833 -118.41989 101 ft 158 kts 262°
2026-05-05 02:37 33.94696 -118.43350 517 ft 166 kts 261°
2026-05-05 02:37 33.94548 -118.44724 1181 ft 165 kts 261°
2026-05-05 02:37 33.94397 -118.46098 1829 ft 166 kts 262°
2026-05-05 02:37 33.94237 -118.47540 2208 ft 184 kts 261°
2026-05-05 02:38 33.94059 -118.49148 2437 ft 205 kts 262°
2026-05-05 02:38 33.93858 -118.50963 2768 ft 232 kts 262°
2026-05-05 02:38 33.93636 -118.52953 3420 ft 245 kts 262°
2026-05-05 02:38 33.93271 -118.54966 4158 ft 250 kts 245°
2026-05-05 02:39 33.92189 -118.56634 4794 ft 260 kts 218°
2026-05-05 02:39 33.90541 -118.57579 5290 ft 268 kts 193°
2026-05-05 02:39 33.88670 -118.57580 6182 ft 274 kts 168°
2026-05-05 02:39 33.86948 -118.56554 6963 ft 282 kts 140°
2026-05-05 02:40 33.85804 -118.54631 7735 ft 289 kts 112°
2026-05-05 02:40 33.85549 -118.52225 8478 ft 296 kts 82°
2026-05-05 02:40 33.86298 -118.49921 9203 ft 302 kts 52°
2026-05-05 02:40 33.87830 -118.48243 9918 ft 304 kts 35°
2026-05-05 02:41 33.89578 -118.46730 10343 ft 320 kts 34°
2026-05-05 02:41 33.91455 -118.45121 10497 ft 343 kts 36°
2026-05-05 02:41 33.93270 -118.43119 10674 ft 364 kts 48°
2026-05-05 02:41 33.94794 -118.40650 11180 ft 371 kts 56°
2026-05-05 02:42 33.96254 -118.38059 11805 ft 376 kts 56°
2026-05-05 02:42 33.97741 -118.35437 12440 ft 381 kts 55°
2026-05-05 02:42 33.99244 -118.32792 13082 ft 385 kts 55°
2026-05-05 02:42 34.00765 -118.30114 13716 ft 390 kts 55°
2026-05-05 02:43 34.02300 -118.27402 14286 ft 394 kts 56°
2026-05-05 02:43 34.03857 -118.24658 14848 ft 398 kts 56°
2026-05-05 02:43 34.05430 -118.21883 15409 ft 402 kts 56°
2026-05-05 02:43 34.07020 -118.19079 15953 ft 407 kts 56°
2026-05-05 02:44 34.08625 -118.16245 16488 ft 411 kts 56°
2026-05-05 02:44 34.10244 -118.13380 17031 ft 415 kts 56°
2026-05-05 02:44 34.11877 -118.10483 17575 ft 419 kts 56°
2026-05-05 02:44 34.13523 -118.07561 18103 ft 423 kts 57°
2026-05-05 02:45 34.15186 -118.04608 18559 ft 427 kts 57°
2026-05-05 02:45 34.16870 -118.01619 18982 ft 432 kts 57°
2026-05-05 02:45 34.18567 -117.98604 19415 ft 436 kts 56°
2026-05-05 02:45 34.20278 -117.95561 19845 ft 440 kts 56°
2026-05-05 02:46 34.22006 -117.92486 20253 ft 444 kts 56°
2026-05-05 02:46 34.23748 -117.89382 20686 ft 448 kts 56°
2026-05-05 02:46 34.25480 -117.86295 21084 ft 452 kts 56°
2026-05-05 02:46 34.27253 -117.83137 21510 ft 455 kts 56°
2026-05-05 02:47 34.29039 -117.79952 21938 ft 459 kts 56°
2026-05-05 02:47 34.30841 -117.76737 22367 ft 463 kts 56°
2026-05-05 02:47 34.32650 -117.73493 22777 ft 467 kts 56°
2026-05-05 02:47 34.34473 -117.70220 23132 ft 471 kts 56°
2026-05-05 02:48 34.36326 -117.66934 23557 ft 474 kts 55°
2026-05-05 02:48 34.38242 -117.63666 23887 ft 478 kts 54°
2026-05-05 02:48 34.40209 -117.60405 24173 ft 482 kts 53°
2026-05-05 02:48 34.42214 -117.57119 24456 ft 486 kts 53°
2026-05-05 02:49 34.44230 -117.53809 24750 ft 489 kts 54°
2026-05-05 02:49 34.46247 -117.50468 25110 ft 492 kts 54°
2026-05-05 02:49 34.48263 -117.47098 25384 ft 496 kts 54°
2026-05-05 02:49 34.50286 -117.43694 25677 ft 499 kts 54°
2026-05-05 02:50 34.52317 -117.40259 25972 ft 503 kts 55°
2026-05-05 02:50 34.54358 -117.36799 26261 ft 506 kts 55°
2026-05-05 02:50 34.56416 -117.33312 26545 ft 510 kts 55°
2026-05-05 02:50 34.58492 -117.29803 26831 ft 513 kts 55°
2026-05-05 02:51 34.60579 -117.26277 27119 ft 516 kts 55°
2026-05-05 02:51 34.62657 -117.22764 27384 ft 520 kts 55°
2026-05-05 02:51 34.64772 -117.19183 27644 ft 523 kts 55°
2026-05-05 02:51 34.66899 -117.15581 27831 ft 526 kts 55°
2026-05-05 02:52 34.69036 -117.11958 28097 ft 529 kts 55°
2026-05-05 02:52 34.71185 -117.08314 28344 ft 532 kts 55°
2026-05-05 02:52 34.73343 -117.04648 28593 ft 535 kts 55°
2026-05-05 02:52 34.75516 -117.00946 28842 ft 538 kts 56°
2026-05-05 02:53 34.77692 -116.97231 29092 ft 541 kts 56°
2026-05-05 02:53 34.79879 -116.93497 29363 ft 544 kts 56°
2026-05-05 02:53 34.82080 -116.89739 29628 ft 546 kts 56°
2026-05-05 02:53 34.84285 -116.85975 29976 ft 546 kts 56°
2026-05-05 02:54 34.86489 -116.82208 30246 ft 547 kts 56°
2026-05-05 02:54 34.88697 -116.78422 30511 ft 548 kts 56°
2026-05-05 02:54 34.90907 -116.74632 30801 ft 548 kts 55°
2026-05-05 02:54 34.93316 -116.71020 31089 ft 549 kts 47°
2026-05-05 02:55 34.95921 -116.67607 31379 ft 550 kts 47°
2026-05-05 02:55 34.98529 -116.64190 31669 ft 550 kts 47°
2026-05-05 02:55 35.01100 -116.60815 31957 ft 550 kts 47°
2026-05-05 02:55 35.03701 -116.57388 32259 ft 551 kts 47°
2026-05-05 02:56 35.06299 -116.53956 32554 ft 550 kts 47°
2026-05-05 02:56 35.08895 -116.50519 32889 ft 549 kts 47°
2026-05-05 02:56 35.11488 -116.47088 33190 ft 549 kts 47°
2026-05-05 02:56 35.14077 -116.43659 33480 ft 549 kts 47°
2026-05-05 02:57 35.16670 -116.40222 33777 ft 550 kts 47°
2026-05-05 02:57 35.19255 -116.36790 34079 ft 548 kts 47°
2026-05-05 02:57 35.21833 -116.33365 34416 ft 546 kts 46°
2026-05-05 02:57 35.24403 -116.29949 34702 ft 545 kts 47°
2026-05-05 02:58 35.26967 -116.26538 34990 ft 544 kts 47°
2026-05-05 02:58 35.29521 -116.23136 35258 ft 542 kts 47°
2026-05-05 02:58 35.32064 -116.19746 35562 ft 540 kts 46°
2026-05-05 02:58 35.34604 -116.16355 35842 ft 539 kts 46°